Tracking 20942 objects as of 10-Jul-2020
HD Live streaming from Space Station
objects crossing your sky now

PSLV DEB

Track PSLV DEB now!
10-day predictions


NORAD ID: 35346
Int'l Code: 2001-049QE
Perigee: 709.1 km
Apogee: 763.8 km
Inclination: 98.9 °
Period: 99.4 minutes
Semi major axis: 7107 km
RCS: 0.0127 m2 (small)
Launch date: October 22, 2001
Source: India (IND)
Launch site: SRIHARIKOTA (SRI)

Note: This is SATELLITE DEBRIS
aabbcc
Your satellite tracking list
Your tracking list is empty




NASA's NSSDC Master Catalog

Two Line Element Set (TLE):
1 35346U 01049QE  20191.32835431  .00000434  00000-0  12709-3 0  9990
2 35346  98.8798 232.3990 0038478 241.7305 118.0001 14.48865985947236
Source of the keplerian elements: AFSPC